Location: Caoma
(10.5237°N, 67.1352°W)
Time: 22:28:08
(UTC+00:00)

Cosmos 1656 - Pass Details

Date: 18 April 2024
Orbit: 799 x 847 km, 71.1° (Epoch: 24 May)

Event Time Altitude Azimuth Distance (km) Brightness Sun altitude
Rises 23:46:25 0° 186° (S) 3,390 6.8 -16.8°
Reaches altitude 10° 23:48:55 10° 182° (S) 2,451 6.0 -17.4°
Maximum altitude 23:54:25 56° 105° (ESE) 983 3.7 -18.7°
Drops below altitude 10° 23:59:50 10° 27° (NNE) 2,422 6.0 -20.0°
Sets 00:02:17 0° 24° (NNE) 3,347 6.7 -20.6°
